[[{"header":{"parameterUnit":"m.s-1","parameterCategory":2,"la1":30.2991,"la2":30.254,"lo1":-89.0895,"lo2":-89.0444,"dy":0.0017,"dx":0.0017,"nx":28,"ny":28,"refTime":"2026-02-26T03:00:00:Z","depth":"0","parameterNumber":2,"parameterNumberName":"U-component_of_CURRENTS"},"data":[0,0,0,0,0,0,0,0,0,0,0,0,0,0,0,0,0,0,0,0,0,0,0,0,0,0,0,0,0,0,0,0,0,0,0,0,0,0,0,0,0,0,0,0,0,0,0,0,0,0,0,0,0,0,0,0,0,0,0.2637,0.2638,0,0.2654,0.2653,0.2653,0.2635,0.2635,0.2635,0.2635,0.261,0.2609,0.2609,0,0,0,0,0,0,0,0,0,0,0,0,0,0.2561,0.2562,0.2637,0.2638,0.2638,0.2654,0.2653,0.2653,0.2635,0.2635,0.2635,0.2634,0.261,0.2609,0.2609,0,0,0,0,0,0,0,0,0,0,0,0,0,0.2582,0.2562,0.2637,0.2635,0.2636,0.2654,0.2653,0.2653,0.2635,0.2635,0.2635,0.2634,0.261,0.2609,0.2608,0.2609,0,0,0.2606,0.2606,0,0,0,0,0,0,0,0,0.2581,0.2584,0.2635,0.2636,0.2636,0.2647,0.2618,0.2638,0.2635,0.2629,0.2635,0.2634,0.2622,0.262,0.2617,0.2608,0.2607,0.2606,0.2606,0.2605,0.2605,0,0,0,0,0,0,0,0.2579,0.2583,0.2638,0.2636,0.2637,0.2625,0.2627,0.2621,0.2622,0.263,0.263,0.2641,0.2621,0.2617,0.2616,0.2606,0.2606,0.2605,0.2605,0.2605,0.2657,0.2658,0,0,0,0,0,0,0.2591,0.2582,0.2637,0.2639,0.2614,0.2627,0.2629,0.2639,0.2623,0.2622,0.2641,0.264,0.2619,0.2617,0.2615,0.2686,0.2605,0.2605,0.2604,0.2655,0.2657,0.2659,0,0,0,0,0,0,0.2589,0.2596,0.2637,0.2615,0.262,0.2629,0.264,0.264,0.2644,0.2633,0.263,0.2648,0.2618,0.2616,0.2633,0.2682,0.2604,0.2604,0.2653,0.2655,0.2658,0.2781,0,0,0,0,0,0,0.2587,0.2595,0.2601,0.2616,0.2622,0.2662,0.2641,0.264,0.2654,0.2652,0.2637,0.2634,0.2618,0.2634,0.2632,0.2679,0.2603,0.265,0.2654,0.2657,0.2775,0.2788,0.2799,0,0,0,0,0,0.2584,0.2595,0.2601,0.2607,0.2632,0.2664,0.2666,0.2667,0.2654,0.2666,0.2662,0.2635,0.2654,0.2635,0.2632,0.268,0.2649,0.2653,0.2657,0.277,0.2785,0.2799,0,0,0,0,0,0,0.2562,0.2595,0.2601,0.2621,0.265,0.2664,0.2671,0.2674,0.2678,0.2673,0.2655,0.2653,0.2693,0.2663,0.2642,0.2705,0.2649,0.2652,0.2735,0.275,0.2762,0.2782,0.2602,0,0,0,0,0,0.2564,0.2579,0.2614,0.2631,0.2646,0.266,0.267,0.2678,0.2688,0.2688,0.2684,0.2682,0.2707,0.2708,0.2715,0.2738,0.2756,0.2768,0.278,0.279,0.2805,0.2918,0.2943,0.2673,0.2672,0.2672,0,0,0.256,0.258,0.2589,0.2628,0.2642,0.2684,0.2664,0.2689,0.2737,0.2685,0.2731,0.2727,0.2724,0.2768,0.2781,0.2747,0.2869,0.2796,0.2805,0.2814,0.2925,0.2952,0.2975,0.2675,0.2675,0.2674,0,0,0.2568,0.2581,0.2602,0.2634,0.2673,0.2695,0.271,0.2737,0.2761,0.2802,0.2796,0.2825,0.2829,0.2859,0.287,0.2949,0.2938,0.2939,0.3011,0.3121,0.3145,0.3166,0.3196,0.322,0.2937,0.2937,0.2937,0,0.2566,0.26,0.2614,0.2652,0.2689,0.2708,0.2756,0.2792,0.2826,0.2859,0.2831,0.2891,0.2885,0.2972,0.2999,0.2982,0.3013,0.2958,0.3141,0.3162,0.3182,0.3208,0.3233,0.2943,0.2943,0.2942,0.2941,0,0.2597,0.2632,0.265,0.2712,0.2753,0.2794,0.2859,0.2903,0.2926,0.2958,0.3038,0.304,0.3075,0.3084,0.3064,0.3198,0.3162,0.3155,0.3111,0.3218,0.3237,0.326,0.2953,0.295,0.2948,0.2947,0,0,0.2579,0.2658,0.2666,0.2713,0.2791,0.2833,0.2926,0.3017,0.3082,0.3118,0.3207,0.3253,0.3244,0.3257,0.3248,0.3329,0.3483,0.33,0.3303,0.3341,0.3684,0.3496,0.3501,0.3522,0.3527,0.3531,0.3631,0,0.2606,0.2686,0.2723,0.2819,0.2874,0.2936,0.3024,0.3108,0.3167,0.3256,0.3299,0.3364,0.3317,0.3335,0.3422,0.3485,0.3554,0.3453,0.3564,0.3566,0.3398,0.3527,0.3269,0.3324,0.3654,0.3657,0.366,0,0.2632,0.2687,0.2778,0.2893,0.2922,0.2983,0.3125,0.3203,0.3332,0.3375,0.345,0.3477,0.3599,0.3539,0.3715,0.3657,0.3679,0.3709,0.3714,0.3515,0.3422,0.3275,0.3353,0.3238,0.3695,0.3692,0.369,0,0.2631,0.2731,0.2807,0.2846,0.2974,0.3033,0.3104,0.323,0.3318,0.345,0.3512,0.364,0.371,0.3808,0.3846,0.3811,0.4021,0.3981,0.3822,0.3806,0.3593,0.3548,0.3583,0.4108,0.4108,0.4108,0.4108,0,0.2666,0.2734,0.2807,0.2859,0.2963,0.3036,0.3159,0.3246,0.3377,0.3484,0.3562,0.366,0.3791,0.3901,0.3926,0.3941,0.4091,0.386,0.3846,0.3618,0.3577,0.3468,0.3446,0.4112,0.4111,0.411,0.411,0,0.2709,0.2734,0.2836,0.2943,0.2971,0.3053,0.3191,0.3288,0.3384,0.3532,0.358,0.3738,0.3856,0.3934,0.4085,0.4015,0.3919,0.4013,0.3688,0.3631,0.3314,0.3307,0.3226,0.3149,0.3861,0.3857,0.3854,0,0.2756,0.2806,0.29,0.2948,0.3005,0.3109,0.3191,0.3291,0.3382,0.3565,0.364,0.3781,0.3841,0.3951,0.387,0.3856,0.3797,0.3593,0.3471,0.3282,0.3268,0.3175,0.3112,0.3236,0.3228,0.3222,0.3217,0,0.2881,0.2897,0.2983,0.3059,0.3127,0.3203,0.3302,0.3357,0.3475,0.3558,0.3667,0.3719,0.3738,0.359,0.3526,0.3488,0.3367,0.3452,0.339,0.2891,0.2668,0.2587,0.3145,0.3159,0.3165,0.3169,0.3172,0.3174,0.2988,0.3052,0.3124,0.3197,0.3256,0.3282,0.3296,0.3367,0.3435,0.346,0.359,0.3511,0.3344,0.3185,0.3151,0.2826,0.2938,0.2669,0.271,0.2658,0.2476,0.2853,0.2763,0.2766,0.2769,0.2771,0.2774,0,0.3104,0.3158,0.3257,0.3299,0.3341,0.3337,0.3366,0.3308,0.3293,0.327,0.3272,0.2978,0.2754,0.2602,0.2258,0.2104,0.2043,0.2048,0.1898,0.1906,0.2348,0.2208,0.183,0.183,0.183,0.183,0.183,0.1831,0.3172,0.3261,0.3283,0.3344,0.336,0.3298,0.3256,0.3131,0.3034,0.2763,0.2513,0.2433,0.2221,0.1932,0.166,0.162,0.1551,0.1387,0.1535,0.1857,0.1919,0.1978,0.1842,0.1393,0.1393,0.0935,0.0932,0.0929]},{"header":{"parameterUnit":"m.s-1","parameterCategory":2,"la1":30.2991,"la2":30.254,"lo1":-89.0895,"lo2":-89.0444,"dy":0.0017,"dx":0.0017,"nx":28,"ny":28,"refTime":"2026-02-26T03:00:00:Z","depth":"0","parameterNumber":3,"parameterNumberName":"V-component_of_CURRENTS"},"data":[0,0,0,0,0,0,0,0,0,0,0,0,0,0,0,0,0,0,0,0,0,0,0,0,0,0,0,0,0,0,0,0,0,0,0,0,0,0,0,0,0,0,0,0,0,0,0,0,0,0,0,0,0,0,0,0,0,0,-0.0009,-0.001,0,-0.002,-0.002,-0.002,-0.0035,-0.0035,-0.0036,-0.0036,-0.005,-0.005,-0.005,0,0,0,0,0,0,0,0,0,0,0,0,0,-0.0007,-0.0007,-0.0009,-0.001,-0.001,-0.002,-0.002,-0.002,-0.0035,-0.0035,-0.0036,-0.0036,-0.005,-0.005,-0.005,0,0,0,0,0,0,0,0,0,0,0,0,0,-0.0011,-0.0007,-0.0009,-0.002,-0.0021,-0.002,-0.002,-0.002,-0.0035,-0.0035,-0.0036,-0.0036,-0.005,-0.005,-0.005,-0.0039,0,0,-0.005,-0.005,0,0,0,0,0,0,0,0,-0.001,-0.001,-0.0018,-0.0019,-0.002,-0.0028,-0.0024,-0.0027,-0.0035,-0.0028,-0.0036,-0.0037,-0.0043,-0.0044,-0.0043,-0.0039,-0.004,-0.005,-0.005,-0.005,-0.005,0,0,0,0,0,0,0,-0.001,-0.001,-0.0012,-0.0018,-0.0019,-0.0025,-0.0026,-0.0024,-0.0031,-0.0029,-0.003,-0.0033,-0.0044,-0.0043,-0.0043,-0.004,-0.005,-0.005,-0.005,-0.005,-0.0024,-0.0024,0,0,0,0,0,0,-0.001,-0.001,-0.0012,-0.0013,-0.0018,-0.0025,-0.0026,-0.0024,-0.0031,-0.0034,-0.0033,-0.0034,-0.0042,-0.0043,-0.0044,-0.0027,-0.005,-0.005,-0.005,-0.0025,-0.0024,-0.0024,0,0,0,0,0,0,-0.001,-0.001,-0.0012,-0.0013,-0.0014,-0.0024,-0.0022,-0.0024,-0.0024,-0.0035,-0.0037,-0.0031,-0.0043,-0.0044,-0.0037,-0.0028,-0.005,-0.005,-0.0026,-0.0025,-0.0024,0.0004,0,0,0,0,0,0,-0.001,-0.001,-0.0007,-0.0013,-0.0014,-0.0001,-0.0021,-0.0023,-0.0025,-0.0027,-0.0034,-0.0036,-0.0043,-0.0036,-0.0037,-0.0028,-0.005,-0.0027,-0.0025,-0.0024,0.0002,0.0005,0.0008,0,0,0,0,0,-0.001,0.0003,-0.0006,-0.0007,-0.0009,-0.0,-0.0,-0.001,-0.0024,-0.0014,-0.0023,-0.0035,-0.0029,-0.0036,-0.0036,-0.0028,-0.0027,-0.0026,-0.0024,0.0,0.0005,0.0008,0,0,0,0,0,0,0.0009,0.0002,-0.0008,0.0002,0.0003,-0.0003,0.0004,-0.0007,-0.0006,-0.0009,-0.0025,-0.0026,-0.0018,-0.0023,-0.0031,-0.0016,-0.003,-0.0029,-0.0012,-0.0008,-0.0004,0.0013,-0.005,0,0,0,0,0,0.0013,0.0018,0.0012,0.002,0.0022,0.0011,0.0012,0.0007,0.0004,0.0004,-0.0005,-0.0011,-0.0011,-0.001,-0.001,0.0001,0.0026,0.0006,0.0009,0.0012,0.0027,0.008,0.009,-0.0018,-0.0018,-0.0018,0,0,0.002,0.0018,0.0019,0.0023,0.0022,0.0036,0.0012,0.002,0.0028,0.0003,0.0012,0.0001,-0.0006,0.0005,0.0008,0.0001,0.0056,0.0014,0.0016,0.003,0.0083,0.0093,0.0103,-0.0017,-0.0018,-0.0018,0,0,0.0046,0.0038,0.0054,0.0059,0.0061,0.0056,0.0059,0.0055,0.005,0.0057,0.0039,0.0038,0.0035,0.0035,0.0033,0.0058,0.0071,0.0052,0.0084,0.0135,0.0145,0.0154,0.02,0.0213,0.0055,0.0055,0.0055,0,0.0055,0.0074,0.0062,0.0083,0.0087,0.0067,0.0088,0.0086,0.0083,0.008,0.0065,0.0065,0.0052,0.007,0.0074,0.0066,0.0099,0.0067,0.0141,0.015,0.0159,0.0204,0.0218,0.0056,0.0056,0.0056,0.0056,0,0.0098,0.0111,0.0124,0.0138,0.0143,0.0159,0.0151,0.0154,0.0137,0.0127,0.0133,0.0122,0.0123,0.0114,0.01,0.0147,0.0153,0.0139,0.0133,0.0172,0.0217,0.0231,0.0058,0.0058,0.0057,0.0057,0,0,0.0122,0.0148,0.0152,0.0166,0.0172,0.0182,0.0194,0.0198,0.0211,0.0195,0.022,0.0199,0.0185,0.0185,0.0168,0.0205,0.0282,0.0201,0.0203,0.0251,0.0405,0.0391,0.0405,0.0288,0.029,0.0292,0.0412,0,0.0159,0.0204,0.0204,0.0242,0.0263,0.0249,0.0261,0.0259,0.0253,0.0275,0.0254,0.0274,0.0215,0.0229,0.025,0.0293,0.032,0.0251,0.0357,0.0361,0.0347,0.0421,0.0391,0.0494,0.0426,0.0428,0.043,0,0.0202,0.0224,0.0266,0.029,0.0297,0.0314,0.0329,0.0341,0.0353,0.0354,0.0358,0.0352,0.0396,0.0345,0.0425,0.039,0.0394,0.0414,0.0419,0.0409,0.0373,0.0444,0.0522,0.0439,0.0451,0.045,0.0448,0,0.0223,0.0267,0.0297,0.0308,0.0332,0.0344,0.0354,0.0361,0.0391,0.0421,0.0467,0.0476,0.0538,0.0542,0.0563,0.0511,0.0669,0.06,0.0582,0.0581,0.0578,0.0573,0.0593,0.0646,0.0645,0.0645,0.0645,0,0.026,0.0289,0.0312,0.0331,0.0372,0.0372,0.042,0.0426,0.0474,0.0548,0.0517,0.0611,0.0599,0.0671,0.0636,0.0683,0.0727,0.0617,0.0623,0.0585,0.0579,0.0522,0.0476,0.0649,0.0649,0.0648,0.0647,0,0.0284,0.03,0.0341,0.0371,0.0385,0.0413,0.0475,0.052,0.0555,0.0668,0.0697,0.0769,0.0875,0.085,0.091,0.0815,0.0796,0.0819,0.0773,0.077,0.0624,0.0581,0.0655,0.0626,0.0813,0.0813,0.0814,0,0.0303,0.0326,0.037,0.0405,0.0424,0.0472,0.0516,0.0554,0.0623,0.0784,0.0862,0.0989,0.1104,0.1165,0.1048,0.0997,0.0889,0.0878,0.0746,0.0643,0.06,0.0572,0.0539,0.0758,0.0758,0.0758,0.0758,0,0.0344,0.0355,0.0388,0.0454,0.0506,0.0574,0.0648,0.072,0.0808,0.0934,0.1135,0.125,0.1298,0.1263,0.1152,0.1073,0.0813,0.0872,0.0793,0.0592,0.0542,0.0507,0.0645,0.0757,0.0757,0.0757,0.0757,0.0757,0.0376,0.0409,0.0455,0.0518,0.058,0.0678,0.0755,0.0875,0.1028,0.1249,0.134,0.1544,0.1412,0.1275,0.1146,0.0833,0.0851,0.0694,0.0664,0.0656,0.0585,0.0718,0.081,0.081,0.081,0.0811,0.0811,0,0.0435,0.0471,0.0526,0.0608,0.0686,0.0708,0.085,0.0959,0.1173,0.1398,0.1595,0.165,0.1485,0.1247,0.0836,0.064,0.0555,0.0542,0.0481,0.0465,0.0611,0.0559,0.0568,0.0568,0.0568,0.0568,0.0568,0.0568,0.0472,0.054,0.0563,0.069,0.075,0.0875,0.0964,0.1147,0.1322,0.1594,0.173,0.1835,0.1625,0.0989,0.0566,0.047,0.0348,0.033,0.0301,0.0356,0.0366,0.0376,0.0316,0.0274,0.0274,0.0147,0.0145,0.0144]}],[{"header":{"parameterUnit":"m.s-1","parameterCategory":2,"la1":30.2991,"la2":30.254,"lo1":-89.0895,"lo2":-89.0444,"dy":0.0017,"dx":0.0017,"nx":28,"ny":28,"refTime":"2026-02-26T03:00:00:Z","depth":"2","parameterNumber":2,"parameterNumberName":"U-component_of_CURRENTS"},"data":[0,0,0,0,0,0,0,0,0,0,0,0,0,0,0,0,0,0,0,0,0,0,0,0,0,0,0,0,0,0,0,0,0,0,0,0,0,0,0,0,0,0,0,0,0,0,0,0,0,0,0,0,0,0,0,0,0,0,0.1751,0.1752,0,0.1751,0.175,0.175,0.1739,0.1739,0.1739,0.1739,0.1755,0.1755,0.1755,0,0,0,0,0,0,0,0,0,0,0,0,0,0.1729,0.1729,0.1751,0.1752,0.1752,0.1751,0.175,0.175,0.1739,0.1739,0.1739,0.1739,0.1755,0.1755,0.1755,0,0,0,0,0,0,0,0,0,0,0,0,0,0.1731,0.1729,0.1751,0.1749,0.1749,0.1751,0.175,0.175,0.1739,0.1739,0.1739,0.1739,0.1754,0.1755,0.1755,0.1756,0,0,0.1757,0.1757,0,0,0,0,0,0,0,0,0.1731,0.1731,0.1749,0.1749,0.175,0.1748,0.1748,0.1754,0.1739,0.1738,0.1739,0.1739,0.1757,0.1757,0.1751,0.1757,0.1758,0.1757,0.1757,0.1758,0.1758,0,0,0,0,0,0,0,0.1731,0.1731,0.1747,0.175,0.175,0.1744,0.1744,0.1749,0.1744,0.1738,0.1739,0.1745,0.1756,0.175,0.1751,0.1758,0.1757,0.1757,0.1758,0.1758,0.182,0.1821,0,0,0,0,0,0,0.1739,0.1731,0.1747,0.1747,0.1745,0.1744,0.1744,0.1745,0.1744,0.1745,0.1745,0.1744,0.1749,0.175,0.1752,0.1796,0.1758,0.1758,0.1758,0.1818,0.182,0.1821,0,0,0,0,0,0,0.1739,0.1741,0.1747,0.1743,0.1744,0.1745,0.1746,0.1745,0.1751,0.1749,0.1749,0.1753,0.1749,0.1751,0.1776,0.1795,0.1758,0.1759,0.1817,0.1819,0.1821,0.1857,0,0,0,0,0,0,0.1738,0.174,0.1743,0.1743,0.1744,0.1756,0.1746,0.1745,0.1756,0.1756,0.1756,0.1757,0.1749,0.1775,0.1777,0.1795,0.1759,0.1815,0.1818,0.182,0.1854,0.186,0.1865,0,0,0,0,0,0.1737,0.1732,0.1743,0.1745,0.1748,0.1757,0.1756,0.1755,0.1757,0.176,0.177,0.1758,0.1792,0.1777,0.1778,0.1797,0.1814,0.1817,0.182,0.1851,0.1858,0.1864,0,0,0,0,0,0,0.172,0.1731,0.1742,0.1741,0.1757,0.1757,0.1757,0.1764,0.1773,0.1777,0.1773,0.1775,0.1801,0.1799,0.1783,0.1824,0.1801,0.1805,0.1825,0.1832,0.1837,0.1858,0.176,0,0,0,0,0,0.1722,0.1725,0.174,0.1745,0.175,0.176,0.1764,0.1771,0.178,0.1783,0.1785,0.1796,0.1812,0.1823,0.1828,0.1853,0.1883,0.1867,0.1873,0.1877,0.1897,0.1943,0.1954,0.1831,0.1831,0.1831,0,0,0.172,0.1727,0.173,0.1743,0.1751,0.1758,0.1761,0.1775,0.179,0.1786,0.1801,0.1811,0.1822,0.1847,0.1859,0.185,0.1936,0.1881,0.1885,0.1903,0.1947,0.1959,0.197,0.1833,0.1833,0.1832,0,0,0.172,0.1724,0.173,0.1739,0.1762,0.1765,0.1775,0.1786,0.1801,0.1828,0.1829,0.1861,0.1872,0.189,0.1901,0.1944,0.1958,0.1941,0.199,0.2033,0.2044,0.2053,0.2138,0.2155,0.1948,0.1948,0.1948,0,0.1721,0.1727,0.1735,0.1742,0.1751,0.177,0.1782,0.1796,0.1818,0.1843,0.184,0.1891,0.1897,0.1945,0.1965,0.1957,0.1997,0.196,0.2041,0.205,0.206,0.2144,0.2162,0.195,0.195,0.195,0.1949,0,0.1727,0.1732,0.1734,0.175,0.176,0.1773,0.1797,0.1815,0.1838,0.1865,0.1923,0.1944,0.1978,0.1986,0.1994,0.2062,0.2077,0.2037,0.2023,0.2074,0.216,0.2178,0.1953,0.1952,0.1952,0.1951,0,0,0.1726,0.1738,0.1739,0.1748,0.1767,0.1775,0.1804,0.1844,0.1879,0.1916,0.1973,0.2018,0.2044,0.2061,0.2073,0.2125,0.2235,0.212,0.2121,0.2204,0.2373,0.2211,0.2215,0.2203,0.2206,0.2208,0.2418,0,0.1733,0.1743,0.1751,0.1763,0.1768,0.179,0.1818,0.186,0.1904,0.1959,0.2018,0.2074,0.2068,0.2103,0.2151,0.2218,0.228,0.2185,0.2311,0.2317,0.2164,0.2228,0.2011,0.2162,0.2435,0.2438,0.2441,0,0.1729,0.174,0.1752,0.1775,0.1782,0.1799,0.185,0.1888,0.1971,0.2021,0.209,0.2118,0.2225,0.2193,0.235,0.2292,0.2342,0.2388,0.2396,0.2243,0.2185,0.2149,0.2185,0.2471,0.2468,0.2466,0.2464,0,0.1711,0.1733,0.1744,0.1749,0.1781,0.1808,0.1847,0.1915,0.1972,0.208,0.2142,0.2227,0.2305,0.2377,0.2446,0.2421,0.2604,0.2571,0.2481,0.2473,0.2311,0.2281,0.2669,0.2669,0.2668,0.2668,0.2667,0,0.1693,0.1702,0.1742,0.1744,0.1784,0.182,0.1888,0.194,0.2042,0.2116,0.219,0.2254,0.2352,0.2433,0.2491,0.2542,0.2639,0.2516,0.2509,0.2318,0.2287,0.2557,0.2541,0.2675,0.2674,0.2672,0.2671,0,0.1657,0.1679,0.1704,0.1754,0.1772,0.1817,0.1918,0.197,0.2084,0.2185,0.2227,0.2329,0.2421,0.2489,0.2616,0.2594,0.2658,0.2637,0.242,0.2378,0.251,0.2494,0.261,0.2606,0.2602,0.2599,0.2597,0,0.163,0.1629,0.1703,0.1736,0.1764,0.1838,0.1883,0.1989,0.2043,0.2209,0.2244,0.2353,0.2378,0.2508,0.2475,0.2533,0.2596,0.2351,0.2229,0.2519,0.2502,0.2491,0.248,0.208,0.2074,0.2068,0.2064,0,0.1576,0.1615,0.1651,0.174,0.1795,0.1829,0.1902,0.1929,0.2048,0.2133,0.221,0.2249,0.2316,0.2219,0.2238,0.2238,0.2317,0.2239,0.2627,0.2076,0.202,0.2002,0.2009,0.2017,0.2021,0.2025,0.2027,0.2029,0.1559,0.1584,0.1663,0.172,0.1802,0.1808,0.1808,0.1848,0.1901,0.1948,0.2052,0.2052,0.2055,0.1945,0.1895,0.1854,0.2026,0.195,0.1967,0.1991,0.1838,0.1773,0.1701,0.1704,0.1706,0.1708,0.171,0,0.156,0.1582,0.1628,0.1706,0.1746,0.1806,0.1808,0.1748,0.1733,0.1774,0.1801,0.1632,0.1557,0.1581,0.144,0.143,0.1439,0.1369,0.1372,0.142,0.1462,0.1283,0.0999,0.0997,0.0995,0.0993,0,0,0.1575,0.1597,0.1584,0.1608,0.1667,0.1645,0.1612,0.1538,0.1514,0.1425,0.1403,0.1489,0.1538,0.1256,0.1204,0.1082,0.1248,0.1031,0.1601,0.1654,0.1693,0.1794,0.1569,0,0,0,0,0]},{"header":{"parameterUnit":"m.s-1","parameterCategory":2,"la1":30.2991,"la2":30.254,"lo1":-89.0895,"lo2":-89.0444,"dy":0.0017,"dx":0.0017,"nx":28,"ny":28,"refTime":"2026-02-26T03:00:00:Z","depth":"2","parameterNumber":3,"parameterNumberName":"V-component_of_CURRENTS"},"data":[0,0,0,0,0,0,0,0,0,0,0,0,0,0,0,0,0,0,0,0,0,0,0,0,0,0,0,0,0,0,0,0,0,0,0,0,0,0,0,0,0,0,0,0,0,0,0,0,0,0,0,0,0,0,0,0,0,0,0.0001,0.0001,0,0.0,0.0001,0.0001,-0.0008,-0.0008,-0.0009,-0.0009,-0.0024,-0.0024,-0.0024,0,0,0,0,0,0,0,0,0,0,0,0,0,-0.0014,-0.0013,0.0001,0.0001,0.0001,0.0,0.0001,0.0001,-0.0008,-0.0008,-0.0009,-0.0009,-0.0024,-0.0024,-0.0024,0,0,0,0,0,0,0,0,0,0,0,0,0,-0.0009,-0.0013,0.0001,-0.0004,-0.0005,0.0,0.0001,0.0001,-0.0008,-0.0008,-0.0009,-0.0009,-0.0024,-0.0024,-0.0024,-0.0016,0,0,-0.0025,-0.0025,0,0,0,0,0,0,0,0,-0.0009,-0.0008,-0.0003,-0.0004,-0.0004,-0.0005,-0.001,-0.0006,-0.0008,-0.0005,-0.0009,-0.0009,-0.0019,-0.002,-0.0017,-0.0017,-0.0017,-0.0025,-0.0025,-0.0025,-0.0025,0,0,0,0,0,0,0,-0.001,-0.0009,0.0002,-0.0003,-0.0004,-0.001,-0.0009,-0.001,-0.0009,-0.0006,-0.0007,-0.0008,-0.002,-0.0017,-0.0018,-0.0018,-0.0025,-0.0025,-0.0025,-0.0025,-0.0013,-0.0013,0,0,0,0,0,0,-0.0011,-0.0009,0.0002,0.0002,-0.0009,-0.0009,-0.0009,-0.0003,-0.0009,-0.001,-0.0008,-0.0009,-0.0017,-0.0018,-0.0018,-0.0003,-0.0025,-0.0025,-0.0025,-0.0014,-0.0013,-0.0013,0,0,0,0,0,0,-0.0011,-0.0009,0.0002,-0.0005,-0.0004,-0.0008,-0.0002,-0.0003,-0.0003,-0.0011,-0.0012,-0.0007,-0.0017,-0.0018,-0.0018,-0.0004,-0.0025,-0.0025,-0.0014,-0.0014,-0.0013,0.0025,0,0,0,0,0,0,-0.0011,-0.0009,-0.0006,-0.0005,-0.0004,0.0011,-0.0002,-0.0003,-0.0004,-0.0005,-0.0011,-0.0012,-0.0018,-0.0018,-0.0019,-0.0004,-0.0026,-0.0015,-0.0014,-0.0013,0.0023,0.0027,0.003,0,0,0,0,0,-0.0011,0.0002,-0.0005,-0.0004,0.0002,0.0011,0.0012,0.0007,-0.0003,0.0004,-0.0005,-0.0012,-0.0013,-0.0018,-0.0018,-0.0004,-0.0015,-0.0014,-0.0013,0.0021,0.0026,0.003,0,0,0,0,0,0,-0.0003,0.0002,-0.0006,0.0008,0.0009,0.001,0.0017,0.0008,0.0008,0.0006,-0.0008,-0.0009,-0.0003,-0.0011,-0.0015,0.0001,-0.0015,-0.0014,0.0011,0.0015,0.0019,0.0031,-0.0026,0,0,0,0,0,0.0,0.001,0.001,0.0019,0.0023,0.0017,0.0019,0.0017,0.0015,0.0014,0.0006,0.0,0.0002,0.0002,0.0001,0.001,0.0009,0.0018,0.0021,0.0024,0.0033,0.0041,0.0046,-0.001,-0.001,-0.001,0,0,0.0004,0.0008,0.0012,0.0021,0.0022,0.004,0.0018,0.0027,0.0038,0.0013,0.0023,0.0012,0.0006,0.0017,0.0019,0.0012,0.004,0.0025,0.0028,0.0036,0.0042,0.0048,0.0053,-0.0009,-0.0009,-0.0009,0,0,0.0023,0.0023,0.0039,0.0047,0.0053,0.0055,0.0057,0.0058,0.0055,0.0059,0.0046,0.0042,0.004,0.0042,0.0042,0.0062,0.0057,0.0061,0.009,0.0098,0.0102,0.0107,0.0115,0.012,0.0064,0.0064,0.0064,0,0.0025,0.0049,0.0045,0.0066,0.0078,0.0064,0.0089,0.0088,0.0085,0.0093,0.0067,0.0072,0.0055,0.008,0.008,0.0071,0.0075,0.0076,0.0103,0.0107,0.0111,0.0118,0.0123,0.0066,0.0066,0.0065,0.0065,0,0.0061,0.0078,0.0092,0.0115,0.0128,0.0148,0.0149,0.0158,0.0146,0.0144,0.0154,0.0127,0.0134,0.0122,0.0103,0.0127,0.0122,0.0106,0.0095,0.0119,0.0125,0.0129,0.0069,0.0068,0.0067,0.0067,0,0,0.0073,0.0109,0.0114,0.014,0.0158,0.018,0.02,0.0224,0.0257,0.0227,0.026,0.0229,0.0211,0.0209,0.0185,0.0178,0.0193,0.0153,0.0152,0.0165,0.0216,0.0176,0.0177,0.0185,0.0185,0.0186,0.021,0,0.0102,0.0153,0.0163,0.0218,0.0248,0.0254,0.0284,0.0303,0.0309,0.0337,0.0299,0.0317,0.0247,0.0255,0.0234,0.0212,0.0205,0.0188,0.0187,0.0187,0.0152,0.0181,0.0192,0.0211,0.0214,0.0215,0.0216,0,0.0137,0.0169,0.0222,0.0285,0.0301,0.0332,0.0397,0.0424,0.0452,0.0457,0.0455,0.0431,0.0415,0.035,0.0313,0.0308,0.0264,0.0233,0.0234,0.0188,0.0155,0.0187,0.0218,0.0222,0.0222,0.0221,0.0221,0,0.0158,0.0217,0.0263,0.0282,0.0343,0.0375,0.0414,0.0459,0.0511,0.0538,0.0584,0.0543,0.0545,0.0478,0.0381,0.0361,0.0341,0.0311,0.0236,0.0233,0.0238,0.0233,0.029,0.029,0.029,0.029,0.029,0,0.0192,0.0234,0.0279,0.0308,0.0389,0.0414,0.0505,0.0541,0.0608,0.0697,0.0649,0.0701,0.0578,0.0541,0.0436,0.0348,0.0383,0.0252,0.024,0.0249,0.0246,0.0248,0.0242,0.0291,0.0291,0.0291,0.0291,0,0.0213,0.0235,0.0302,0.0369,0.04,0.046,0.0574,0.0654,0.0703,0.082,0.0836,0.0833,0.0777,0.0648,0.0546,0.0438,0.0345,0.0303,0.0315,0.0303,0.0222,0.0218,0.0242,0.0241,0.024,0.0239,0.0238,0,0.0232,0.0266,0.0347,0.0405,0.044,0.053,0.0613,0.069,0.0791,0.0908,0.0982,0.0953,0.0939,0.0763,0.0559,0.0382,0.035,0.0283,0.0233,0.0233,0.0219,0.0216,0.0214,0.0261,0.0261,0.0261,0.026,0,0.0286,0.0305,0.0358,0.046,0.0551,0.0673,0.0797,0.0879,0.0993,0.1077,0.1178,0.1165,0.0999,0.0803,0.0543,0.0419,0.0304,0.0269,0.0294,0.0256,0.0249,0.0235,0.0233,0.0257,0.0257,0.0258,0.0258,0.0258,0.0328,0.0377,0.0444,0.0546,0.065,0.0804,0.0904,0.103,0.1165,0.1276,0.1279,0.1241,0.1049,0.0683,0.0492,0.0279,0.0284,0.0207,0.021,0.0213,0.0195,0.0184,0.0178,0.0178,0.0178,0.0178,0.0178,0,0.0391,0.045,0.0542,0.0674,0.0791,0.0839,0.1028,0.1113,0.1243,0.1301,0.1334,0.1122,0.0925,0.07,0.0387,0.0211,0.0201,0.0152,0.0186,0.019,0.0193,0.0176,0.0154,0.0153,0.0152,0.0152,0,0,0.043,0.0525,0.057,0.0768,0.0862,0.1035,0.113,0.1221,0.1279,0.1284,0.1239,0.1185,0.095,0.0716,0.049,0.0324,0.0293,0.0283,0.0321,0.0392,0.0398,0.0242,0.0221,0,0,0,0,0]}],[{"header":{"parameterUnit":"m.s-1","parameterCategory":2,"la1":30.2991,"la2":30.254,"lo1":-89.0895,"lo2":-89.0444,"dy":0.0017,"dx":0.0017,"nx":28,"ny":28,"refTime":"2026-02-26T03:00:00:Z","depth":"4","parameterNumber":2,"parameterNumberName":"U-component_of_CURRENTS"},"data":[0,0,0,0,0,0,0,0,0,0,0,0,0,0,0,0,0,0,0,0,0,0,0,0,0,0,0,0,0,0,0,0,0,0,0,0,0,0,0,0,0,0,0,0,0,0,0,0,0,0,0,0,0,0,0,0,0,0,0.092,0.0921,0,0.0947,0.0947,0.0948,0.0984,0.0984,0.0985,0.0985,0.1027,0.1028,0.1028,0,0,0,0,0,0,0,0,0,0,0,0,0,0.0917,0.0916,0.092,0.0921,0.0921,0.0947,0.0947,0.0948,0.0984,0.0984,0.0985,0.0986,0.1027,0.1028,0.1028,0,0,0,0,0,0,0,0,0,0,0,0,0,0.0928,0.0916,0.092,0.0942,0.0944,0.0947,0.0947,0.0948,0.0983,0.0984,0.0985,0.0986,0.1027,0.1027,0.1028,0.1015,0,0,0.1031,0.1031,0,0,0,0,0,0,0,0,0.0927,0.0928,0.0939,0.0941,0.0943,0.0963,0.0961,0.0971,0.0983,0.0968,0.0985,0.0987,0.1006,0.1009,0.1011,0.1017,0.1018,0.1031,0.1031,0.1032,0.1032,0,0,0,0,0,0,0,0.0926,0.0927,0.0931,0.0939,0.0942,0.0956,0.0959,0.0963,0.0982,0.097,0.0973,0.0975,0.1008,0.1011,0.1013,0.1019,0.1031,0.1031,0.1032,0.1032,0.1097,0.1098,0,0,0,0,0,0,0.0921,0.0926,0.093,0.0932,0.0938,0.0955,0.0958,0.0956,0.0982,0.0987,0.0975,0.0977,0.1009,0.1012,0.1014,0.1061,0.1032,0.1032,0.1033,0.1095,0.1097,0.1098,0,0,0,0,0,0,0.0921,0.0921,0.0929,0.093,0.0932,0.0954,0.0951,0.0956,0.0979,0.0985,0.0991,0.0996,0.101,0.1013,0.1044,0.1061,0.1033,0.1033,0.1094,0.1096,0.1098,0.1116,0,0,0,0,0,0,0.0921,0.0921,0.0927,0.0929,0.0932,0.0945,0.0951,0.0956,0.0978,0.0982,0.1005,0.1008,0.1011,0.1043,0.1044,0.1062,0.1034,0.1092,0.1095,0.1097,0.1114,0.1118,0.1122,0,0,0,0,0,0.092,0.0921,0.0927,0.0929,0.0936,0.0945,0.0948,0.0967,0.0979,0.0991,0.1013,0.1009,0.1059,0.1044,0.1046,0.1064,0.1091,0.1094,0.1097,0.1112,0.1117,0.1122,0,0,0,0,0,0,0.0925,0.0924,0.0932,0.0933,0.0947,0.0952,0.0968,0.0976,0.1002,0.1015,0.102,0.1025,0.106,0.1061,0.1045,0.1092,0.1076,0.1079,0.1087,0.1092,0.1096,0.1085,0.1035,0,0,0,0,0,0.0927,0.0929,0.0934,0.0939,0.0948,0.0961,0.0972,0.0984,0.1001,0.1014,0.103,0.1051,0.1068,0.1081,0.1096,0.1116,0.1133,0.1132,0.1136,0.1139,0.1134,0.1185,0.1193,0.1107,0.1107,0.1107,0,0,0.0929,0.0932,0.0932,0.0941,0.0955,0.0961,0.0971,0.0993,0.1003,0.1013,0.1046,0.1067,0.1078,0.1107,0.1122,0.1112,0.1175,0.1143,0.1146,0.1138,0.1189,0.1197,0.1205,0.1109,0.1109,0.1109,0,0,0.0931,0.0941,0.0943,0.0954,0.0976,0.0979,0.0988,0.1008,0.103,0.1057,0.1071,0.1103,0.1129,0.114,0.1147,0.1182,0.1197,0.1196,0.1203,0.1254,0.1261,0.1268,0.1307,0.1317,0.1195,0.1195,0.1195,0,0.094,0.0934,0.0948,0.0956,0.0962,0.0986,0.0989,0.101,0.104,0.1062,0.1075,0.1129,0.1141,0.1166,0.1182,0.1189,0.1222,0.1181,0.1259,0.1266,0.1272,0.131,0.1321,0.1197,0.1197,0.1196,0.1196,0,0.0937,0.0941,0.0948,0.0957,0.0967,0.0978,0.0999,0.1027,0.1055,0.1078,0.113,0.1154,0.1187,0.1198,0.1198,0.1248,0.1258,0.1259,0.1243,0.1281,0.132,0.133,0.1198,0.1198,0.1198,0.1197,0,0,0.0929,0.0941,0.0946,0.0945,0.0968,0.0971,0.0999,0.1025,0.1052,0.11,0.114,0.1174,0.1208,0.1217,0.1233,0.1268,0.1342,0.1285,0.1287,0.1317,0.146,0.133,0.133,0.1367,0.1369,0.1371,0.1471,0,0.0925,0.0924,0.0935,0.0936,0.0932,0.0962,0.0982,0.1018,0.106,0.1112,0.1159,0.121,0.121,0.1243,0.1277,0.1331,0.1371,0.1314,0.1423,0.1425,0.13,0.1337,0.1376,0.1479,0.1481,0.1483,0.1484,0,0.0912,0.091,0.0906,0.0914,0.092,0.0931,0.0967,0.0994,0.1072,0.1115,0.1176,0.1228,0.1293,0.1293,0.1395,0.1367,0.1414,0.1447,0.1452,0.1327,0.1315,0.1432,0.1503,0.1502,0.15,0.1499,0.1498,0,0.0876,0.0887,0.0878,0.0882,0.0901,0.0919,0.0941,0.1003,0.1043,0.1136,0.1188,0.1265,0.1336,0.1396,0.1465,0.1453,0.1573,0.1567,0.1492,0.1484,0.1563,0.1554,0.1641,0.1641,0.164,0.164,0.164,0,0.0845,0.084,0.0867,0.0861,0.0868,0.09,0.0934,0.0974,0.1058,0.1115,0.1199,0.1258,0.1373,0.1454,0.1491,0.1516,0.1603,0.1492,0.1499,0.1569,0.1561,0.1571,0.1561,0.1644,0.1643,0.1642,0.1642,0,0.0791,0.0813,0.0804,0.0834,0.0849,0.0858,0.0928,0.0957,0.1046,0.1126,0.117,0.1298,0.1394,0.1473,0.1588,0.155,0.1584,0.1574,0.1645,0.1655,0.1457,0.1448,0.1498,0.1494,0.1491,0.1488,0.1486,0,0.0749,0.0738,0.0777,0.0781,0.0796,0.0827,0.0854,0.0943,0.0984,0.1135,0.1169,0.1308,0.138,0.1437,0.1515,0.1564,0.1548,0.1553,0.1488,0.1439,0.1443,0.1438,0.1433,0.1481,0.148,0.1479,0.1478,0,0.066,0.0693,0.0698,0.0716,0.0741,0.0762,0.0815,0.085,0.0967,0.1058,0.1153,0.1215,0.1315,0.1385,0.1431,0.1461,0.1535,0.152,0.1526,0.1465,0.142,0.1425,0.1424,0.1467,0.1469,0.147,0.147,0,0.0605,0.0597,0.0627,0.0638,0.0661,0.0683,0.073,0.0792,0.0857,0.103,0.1063,0.1196,0.1315,0.1333,0.1373,0.1385,0.1365,0.1317,0.1334,0.1347,0.1245,0.1161,0.1135,0,0,0,0,0,0.0548,0.054,0.0538,0.0551,0.0572,0.0599,0.0688,0.0748,0.0881,0.0917,0.099,0.1073,0.1146,0.1212,0.1197,0.1292,0.1359,0.1264,0.1309,0.1405,0.1418,0.1308,0,0,0,0,0,0,0.0513,0.051,0.0517,0.0476,0.047,0.0496,0.0562,0.0659,0.0692,0.0832,0.0885,0.0976,0.1068,0.1137,0.1163,0.118,0.118,0.134,0.1336,0.1398,0.141,0.142,0.1311,0,0,0,0,0]},{"header":{"parameterUnit":"m.s-1","parameterCategory":2,"la1":30.2991,"la2":30.254,"lo1":-89.0895,"lo2":-89.0444,"dy":0.0017,"dx":0.0017,"nx":28,"ny":28,"refTime":"2026-02-26T03:00:00:Z","depth":"4","parameterNumber":3,"parameterNumberName":"V-component_of_CURRENTS"},"data":[0,0,0,0,0,0,0,0,0,0,0,0,0,0,0,0,0,0,0,0,0,0,0,0,0,0,0,0,0,0,0,0,0,0,0,0,0,0,0,0,0,0,0,0,0,0,0,0,0,0,0,0,0,0,0,0,0,0,0.0087,0.0087,0,0.0089,0.0089,0.0089,0.0083,0.0083,0.0083,0.0083,0.0083,0.0083,0.0083,0,0,0,0,0,0,0,0,0,0,0,0,0,0.006,0.0061,0.0087,0.0087,0.0087,0.0089,0.0089,0.0089,0.0083,0.0083,0.0083,0.0082,0.0083,0.0083,0.0083,0,0,0,0,0,0,0,0,0,0,0,0,0,0.0068,0.0061,0.0087,0.0084,0.0084,0.0089,0.0089,0.0089,0.0083,0.0083,0.0083,0.0082,0.0083,0.0083,0.0083,0.0091,0,0,0.0084,0.0084,0,0,0,0,0,0,0,0,0.0068,0.0069,0.0084,0.0084,0.0084,0.0085,0.0079,0.0089,0.0083,0.0084,0.0083,0.0082,0.0083,0.0084,0.0085,0.0091,0.0091,0.0084,0.0084,0.0084,0.0084,0,0,0,0,0,0,0,0.0067,0.0069,0.0088,0.0084,0.0084,0.0076,0.0078,0.0081,0.0085,0.0084,0.0083,0.0083,0.0083,0.0085,0.0085,0.0091,0.0084,0.0084,0.0084,0.0085,0.0104,0.0104,0,0,0,0,0,0,0.0068,0.0069,0.0088,0.0088,0.0075,0.0077,0.0078,0.0085,0.0085,0.0085,0.0083,0.0083,0.0084,0.0085,0.0085,0.0106,0.0084,0.0085,0.0085,0.0103,0.0104,0.0104,0,0,0,0,0,0,0.0068,0.007,0.0088,0.0077,0.0079,0.0078,0.0086,0.0085,0.0087,0.0085,0.0085,0.0086,0.0084,0.0085,0.009,0.0106,0.0085,0.0085,0.0103,0.0104,0.0104,0.0141,0,0,0,0,0,0,0.0067,0.007,0.0075,0.0078,0.008,0.0094,0.0086,0.0086,0.0088,0.0087,0.0087,0.0087,0.0084,0.009,0.0091,0.0106,0.0085,0.0103,0.0103,0.0104,0.0139,0.0143,0.0146,0,0,0,0,0,0.0066,0.0077,0.0075,0.0078,0.0087,0.0095,0.0095,0.0093,0.0088,0.0093,0.0091,0.0087,0.0094,0.0091,0.0091,0.0107,0.0102,0.0103,0.0104,0.0138,0.0142,0.0145,0,0,0,0,0,0,0.0067,0.0078,0.0076,0.0089,0.0092,0.0094,0.0098,0.0095,0.0098,0.0098,0.0092,0.0092,0.0103,0.0097,0.0093,0.0113,0.0097,0.0098,0.0123,0.0127,0.013,0.0143,0.0085,0,0,0,0,0,0.007,0.0082,0.0086,0.0096,0.0099,0.0098,0.0101,0.0101,0.0103,0.0103,0.0101,0.0101,0.0107,0.011,0.0111,0.0124,0.0105,0.0133,0.0136,0.0139,0.0149,0.0126,0.0128,0.0107,0.0107,0.0107,0,0,0.0072,0.008,0.0085,0.0097,0.0099,0.0115,0.0099,0.0108,0.0121,0.0104,0.0118,0.0111,0.0111,0.0125,0.0129,0.0123,0.0133,0.014,0.0142,0.0151,0.0127,0.0129,0.013,0.0107,0.0107,0.0107,0,0,0.0085,0.0091,0.0105,0.0113,0.0121,0.0125,0.0129,0.0132,0.0134,0.0143,0.0137,0.0138,0.0143,0.0148,0.0152,0.0173,0.0148,0.0171,0.0202,0.0179,0.0181,0.0182,0.0152,0.015,0.0175,0.0175,0.0175,0,0.0086,0.011,0.0109,0.0126,0.0141,0.0133,0.0156,0.0159,0.0162,0.017,0.0152,0.0161,0.0157,0.0182,0.0189,0.0182,0.0159,0.0189,0.0183,0.0184,0.0185,0.0154,0.0152,0.0177,0.0177,0.0177,0.0177,0,0.0112,0.0133,0.0143,0.0167,0.018,0.0199,0.0206,0.0216,0.0213,0.0213,0.0224,0.021,0.0216,0.0214,0.0211,0.0222,0.0201,0.0187,0.0175,0.0189,0.0156,0.0152,0.018,0.0179,0.0179,0.0178,0,0,0.0117,0.0155,0.016,0.0186,0.0208,0.0226,0.025,0.0275,0.0296,0.028,0.0298,0.0299,0.0281,0.0283,0.0271,0.0256,0.0237,0.0229,0.0227,0.0201,0.0178,0.016,0.0154,0.0219,0.0219,0.0219,0.015,0,0.0141,0.0187,0.02,0.0252,0.0281,0.0292,0.032,0.0338,0.034,0.035,0.033,0.0338,0.031,0.0312,0.0291,0.0252,0.0232,0.0256,0.0167,0.0165,0.0148,0.0152,0.0218,0.0148,0.0147,0.0146,0.0146,0,0.0165,0.0198,0.0251,0.0311,0.0325,0.0355,0.0406,0.0429,0.0439,0.0436,0.0428,0.0402,0.0386,0.0351,0.0284,0.0298,0.0247,0.0208,0.0204,0.0175,0.0141,0.0131,0.014,0.014,0.0141,0.0141,0.0141,0,0.0179,0.0238,0.0287,0.0306,0.0365,0.0397,0.0431,0.0458,0.0486,0.0489,0.0492,0.0458,0.0438,0.037,0.0279,0.0282,0.0189,0.0179,0.0114,0.0111,0.0131,0.0131,0.0133,0.0133,0.0133,0.0133,0.0133,0,0.0206,0.0247,0.0302,0.033,0.0402,0.043,0.0497,0.0518,0.0546,0.0576,0.0536,0.0531,0.0441,0.0371,0.0289,0.0184,0.0189,0.0122,0.0096,0.0147,0.0149,0.0128,0.0128,0.013,0.0131,0.0131,0.0132,0,0.0218,0.0248,0.0313,0.0383,0.041,0.0464,0.0547,0.0588,0.0604,0.0635,0.0636,0.0586,0.0493,0.0386,0.0269,0.02,0.0102,0.0064,0.0119,0.0096,0.0038,0.0041,-0.0007,-0.0008,-0.0009,-0.0009,-0.001,0,0.0233,0.0266,0.0349,0.0393,0.0431,0.0511,0.0565,0.0615,0.0653,0.0663,0.0672,0.0597,0.0544,0.0361,0.025,0.0086,0.0066,0.0015,0.004,0.0046,0.0025,0.003,0.0034,-0.0012,-0.0012,-0.0012,-0.0012,0,0.0267,0.0291,0.034,0.0422,0.0489,0.0572,0.0646,0.0677,0.0722,0.0729,0.0697,0.0606,0.0499,0.036,0.0227,0.0112,0.0049,0.0004,0.0006,0.003,0.0039,0.002,0.0026,-0.0016,-0.0015,-0.0015,-0.0015,0,0.0288,0.0325,0.0379,0.0456,0.0534,0.0608,0.0653,0.0697,0.0735,0.0737,0.0721,0.0607,0.0547,0.0372,0.0248,0.0131,0.0112,0.0084,0.0081,0.0084,0.013,0.0157,0.0118,0,0,0,0,0,0.0308,0.0346,0.0414,0.0495,0.0567,0.0615,0.0696,0.0731,0.0762,0.0743,0.0737,0.0634,0.0459,0.0384,0.0264,0.023,0.0088,0.0086,0.0054,-0.0034,-0.003,0.0007,0,0,0,0,0,0,0.0318,0.0376,0.041,0.0507,0.0563,0.0651,0.0702,0.0728,0.0723,0.0727,0.0634,0.0599,0.0426,0.0518,0.0256,0.0222,0.0186,0.0007,0.0004,-0.0036,-0.0033,-0.003,0.001,0,0,0,0,0]}]]